Location: Newark
(43.0000°N, 1.6781°W)
Time: 10:09:35
(UTC+00:00)

Explorer 7 - Pass Details

Date: 26 April 2021
Orbit: 484 x 677 km, 50.3° (Epoch: 07 May)

Event Time Altitude Azimuth Distance (km) Brightness Sun altitude
Rises 19:18:29 0° 270° (W) 2,598 11.8 -3.6°
Reaches altitude 10° 19:20:46 10° 280° (W) 1,739 11.1 -4.0°
Maximum altitude 19:24:24 35° 347° (NNW) 880 8.3 -4.6°
Drops below altitude 10° 19:28:14 10° 54° (NE) 1,840 9.2 -5.2°
Sets 19:30:43 0° 64° (ENE) 2,774 10.0 -5.7°
